Regional Weather Roundup
Issued by NWS

Home | Current Version | Previous Version | Graphics & Text | Print | Product List | Glossary On
Versions: 1 2 3 4 5 6 7 8 9 10 11 12 13 14 15 16 17 18 19 20 21 22 23 24 25 26 27 28 29 30 31 32 33 34 35 36 37 38 39 40 41 42 43 44 45 46 47 48 49 50
896
ASUS43 KFSD 230310
RWRSD

WEATHER ROUNDUP FOR SOUTH DAKOTA
NATIONAL WEATHER SERVICE SIOUX FALLS SD
1000 PM CDT SUN APR 22 2018

NOTE: "FAIR" INDICATES FEW OR NO CLOUDS BELOW 12,000 FEET WITH NO
SIGNIFICANT WEATHER AND/OR OBSTRUCTIONS TO VISIBILITY.


SDZ001>005-009-010-012>017-230400-
NORTHWEST AND NORTH CENTRAL SOUTH DAKOTA

CITY           SKY/WX    TMP DP  RH WIND       PRES   REMARKS
BUFFALO          N/A     54  34  46 NE12      30.02R
FAITH            N/A     50  41  71 SE10      30.10R
MOBRIDGE       CLEAR     50  39  66 SE10      30.11R
$$

SDZ012>016-024>037-041>051-057-063-072>074-230400-
SOUTHWEST AND SOUTH CENTRAL SOUTH DAKOTA

CITY           SKY/WX    TMP DP  RH WIND       PRES   REMARKS
RAPID CTY ARPT CLEAR     49  38  65 E9        30.09R
PIERRE         CLEAR     49  40  71 SE9       30.13R
CUSTER         CLEAR     46  32  58 E3        30.14R
PHILIP         CLEAR     47  39  74 E8        30.10R
PINE RIDGE     CLEAR     48  39  71 E6        30.10R
SPEARFISH      FAIR      46  37  71 SE6       30.10R
WINNER         FAIR      51  38  60 S10       30.16R
$$

SDZ004>011-016>023-039-040-230400-
NORTHEAST SOUTH DAKOTA

CITY           SKY/WX    TMP DP  RH WIND       PRES   REMARKS
ABERDEEN       CLEAR     45  34  65 S8        30.18R
WATERTOWN      CLEAR     45  38  76 SE8       30.20S
BROOKINGS      CLEAR     46  39  76 SE9       30.23R
SISSETON         N/A     45  39  79 S7        30.20R
$$

SDZ017-020-022-023-036>040-048>070-230400-
SOUTHEAST SOUTH DAKOTA

CITY           SKY/WX    TMP DP  RH WIND       PRES   REMARKS
SIOUX FALLS    CLEAR     47  38  71 E6        30.22R
HURON          CLEAR     49  38  65 SE5       30.18R
CHAMBERLAIN    CLEAR     48  42  80 SE6       30.17R
MITCHELL       CLEAR     50  40  68 SE8       30.19R
YANKTON        CLEAR     51  40  65 E7        30.20R
$$

ABBREVIATIONS USED IN REMARKS
   TC - TEMPERATURE IN CELSIUS
  WCI - WIND CHILL INDEX
   HX - HEAT INDEX
  VSB - VISIBILITY





USA.gov is the U.S. government's official web portal to all federal, state and local government web resources and services.